Regional Weather Roundup
Issued by NWS Boston, MA

Home | Current Version | Previous Version | Text Only | Print | Product List | Glossary On
Versions: 1 2 3 4 5 6 7 8 9 10 11 12 13 14 15 16 17 18 19 20 21 22 23 24 25 26 27
000
ASUS41 KBOX 191310
RWRBOX

REGIONAL WEATHER ROUNDUP
NATIONAL WEATHER SERVICE TAUNTON MA
800 AM EST THU JAN 19 2017

NOTE:  "FAIR" INDICATES FEW OR NO CLOUDS BELOW 12,000 FEET WITH NO
SIGNIFICANT WEATHER AND/OR OBSTRUCTIONS TO VISIBILITY.

MAZALL-191400-
EASTERN MASSACHUSETTS

CITY           SKY/WX    TMP DP  RH WIND       PRES   REMARKS
BOSTON         CLOUDY    33  32  96 S3        30.00S
BEVERLY        CLOUDY    31  30  96 CALM      30.00R FOG
LAWRENCE       CLOUDY    32  30  92 CALM      30.01S
BEDFORD        PTCLDY    30  27  88 CALM      29.99S FOG
BLUE HILL        N/A     30  29  96 SW7       29.96S WCI  23
NORWOOD        CLOUDY    32  31  96 CALM      30.00S FOG
MARSHFIELD     CLOUDY    34  34 100 CALM      30.00S FOG
PLYMOUTH       CLOUDY    33  32  96 CALM      30.00S FOG
TAUNTON        CLOUDY    33  32  96 CALM      30.00S FOG
NEW BEDFORD    CLOUDY    35  33  92 CALM      30.00S
$$

MAZALL-191400-
CAPE COD AND THE ISLANDS

CITY           SKY/WX    TMP DP  RH WIND       PRES   REMARKS
FALMOUTH       CLOUDY    34  34 100 MISG      30.01S FOG
HYANNIS        CLOUDY    36  35  96 NW6       29.99R WCI  31
CHATHAM        CLOUDY    39  37  92 NW7       30.00S
PROVINCETOWN   CLOUDY    38  36  92 NW6       30.01R
NANTUCKET      CLOUDY    38  36  92 N10       29.99R WCI  31
MARTHAS VNYRD  CLOUDY    37  35  92 NW6       30.00R FOG
$$

MAZALL-191400-
CENTRAL AND WESTERN MASSACHUSETTS

CITY           SKY/WX    TMP DP  RH WIND       PRES   REMARKS
WORCESTER      MOCLDY    32  30  92 W10       29.96R WCI  24
FITCHBURG      CLOUDY    33  32  96 CALM      29.99S FOG
ORANGE         CLOUDY    32  32 100 CALM      29.98R
SPRINGFIELD    CLOUDY    33  32  96 S5        29.98S FOG     WCI  29
WESTFIELD      CLOUDY    34  34 100 CALM      29.99S
NORTH ADAMS    CLOUDY    35  32  88 W5        30.00R WCI  31
PITTSFIELD     CLOUDY    34  32  92 W10       29.97S WCI  26
$$

RIZALL-191400-
RHODE ISLAND

CITY           SKY/WX    TMP DP  RH WIND       PRES   REMARKS
PROVIDENCE     CLOUDY    35  33  92 CALM      30.00F
NEWPORT        CLOUDY    35  34  96 CALM      30.00S FOG
SMITHFIELD     FOG       31  30  96 CALM      29.99S VSB 1
WESTERLY       CLOUDY    37  33  85 CALM      30.02S
$$

CTZALL-191400-
CONNECTICUT

CITY           SKY/WX    TMP DP  RH WIND       PRES   REMARKS
BRADLEY INTL   MOCLDY    34  33  96 S6        30.00F WCI  29
HARTFORD       MOCLDY    34  33  96 S6        30.02S FOG     WCI  29
BRIDGEPORT     PTCLDY    35  32  88 CALM      30.04R
DANBURY        FOG       31  31 100 SW5       30.03R VSB<1/4 WCI  26
GROTON         CLOUDY    36  34  92 CALM      30.01S
NEW HAVEN      MOCLDY    32  31  96 CALM      30.03R
CHESTER        CLOUDY    36  34  93 W3        30.01S
MERIDEN        CLOUDY    34  31  88 SE3       30.03R FOG
WILLIMANTIC    CLOUDY    36  35  96 CALM      30.01S FOG
OXFORD         FOG       34  30  86 CALM      30.02R VSB 1
$$

MEZ002-015-021-024-NHZ003-005-008-011-012-014-VTZ005-008-191400-
NORTHERN NEW ENGLAND

CITY           SKY/WX    TMP DP  RH WIND       PRES   REMARKS
PORTLAND ME    CLOUDY    27  23  85 N3        30.01R
BANGOR ME      FLURRIES  23  21  92 CALM      29.99S
CONCORD NH     CLOUDY    29  27  92 CALM      29.99R
MANCHESTER NH  NOT AVBL
NASHUA NH      NOT AVBL
PORTSMOUTH NH  CLOUDY    29  27  90 CALM      29.99R
JAFFREY NH     NOT AVBL
KEENE NH       NOT AVBL
BURLINGTON VT  CLOUDY    36  33  89 SW5       29.98R
MT. WASHINGTON BLWGSNOW  16  16 100 W51         N/A  VSB 1/8 WCI  -9
$$

NYZ052-076-191400-
EASTERN NEW YORK

CITY           SKY/WX    TMP DP  RH WIND       PRES   REMARKS
ALBANY         CLOUDY    36  34  92 SW5       30.02S
NEW YORK CITY  PTCLDY    43  36  76 NW6       30.04R
$$

ANZALL-191400-
MARINE OBSERVATIONS

STATION/POSITION TIME  TEMP    WIND        PRES    VSBY  WAVE
                       AIR SEA DIR/SP/G                  HT/PER
                 (UTC) (F)     (DEG/KT/KT) (MB)    (MI)  (FT/S)
BOSTON BUOY      1150   35 45  290/  4/  6 1015.3          6/ 8
BUZZARDS BAY     1200   35     330/  8/  9 1016.6R
NANTUCKET SOUND  1150   38 43  330/ 10/ 12 1015.3          2/ 4
MASS BAY-STELLWA 1204   35 44  290/  4/  6 1015.1F  1 7/8  6/ 9
ISLE OF SHOALS   1200   31     280/  4/  5 1015.4F
S OF BLOCK IS    1255      46                N/A           5/ 9
$$

......................KEY.........................
  SKY/WX - SKY CONDITION/PRESENT WEATHER
  TMP    - TEMPERATURE IN FAHRENHEIT
  DWPT   - DEWPOINT IN FAHRENHEIT
  RH     - RELATIVE HUMIDITY IN PERCENT
  WIND   - DIRECTION AND SPEED IN MPH
  PRES   - MEAN SEA LEVEL PRESSURE IN INCHES OF HG
  WCI    - WIND CHILL INDEX
  VSB    - VISIBILITY IN MILES
  HX     - HEAT INDEX
  TC     - TEMPERATURE IN CELSIUS
  VRB    - VARIABLE WIND DIRECTION
  N/A    - NOT AVAILABLE




USA.gov is the U.S. government's official web portal to all federal, state and local government web resources and services.